EW2142 Weather Reports


Display with metric or nautical units.
time (UTC)temp
F
wind
direction
speed
MPH
gust
MPH
rain 1hr
in
rain 24hr
in
rain mn
in
humidity
%
barometer
mb
20260905062503 55 308 1.0 8.0 0.00 0.09 0.05 1 999.2
20260905062003 55 303 1.0 7.0 0.00 0.09 0.05 1 999.2
20260905061524 55 309 1.0 6.0 0.00 0.09 0.05 1 999.2
20260905061003 55 310 1.0 6.0 0.00 0.09 0.05 1 999.1
20260905060503 55 309 0.0 4.0 0.00 0.09 0.05 1 999.1
20260905060024 55 320 0.0 4.0 0.00 0.09 0.05 1 999.0
20260905055503 55 319 0.0 4.0 0.00 0.09 0.05 1 998.9
20260905055003 55 168 0.0 3.0 0.00 0.09 0.05 1 998.8
20260905054503 54 0 0.0 3.0 0.00 0.09 0.05 1 998.8
20260905054002 54 0 0.0 3.0 0.00 0.09 0.05 1 998.7
20260905053502 54 0 0.0 3.0 0.00 0.09 0.05 1 998.6
20260905053003 54 0 0.0 3.0 0.00 0.09 0.05 1 998.6
20260905052503 54 0 0.0 3.0 0.00 0.09 0.05 1 998.6
20260905052003 54 0 0.0 3.0 0.00 0.09 0.05 1 998.5
20260905051503 54 0 0.0 3.0 0.00 0.09 0.05 1 998.5
20260905051003 54 0 0.0 3.0 0.00 0.09 0.05 1 998.4
20260905050503 54 0 0.0 3.0 0.00 0.09 0.05 1 998.4
20260905050003 54 0 0.0 3.0 0.00 0.09 0.05 1 998.4
20260905045503 54 0 0.0 3.0 0.00 0.09 0.05 1 998.3
20260905045003 54 0 0.0 3.0 0.00 0.09 0.05 1 998.3
20260905044503 54 0 0.0 3.0 0.00 0.09 0.05 1 998.4
20260905044003 54 0 0.0 3.0 0.00 0.09 0.05 1 998.3
20260905043503 54 0 0.0 3.0 0.00 0.09 0.05 1 998.2
20260905043003 54 0 0.0 3.0 0.00 0.09 0.05 1 998.2
20260905042524 54 0 0.0 3.0 0.00 0.09 0.05 1 998.2
20260905042003 54 0 0.0 3.0 0.00 0.09 0.05 1 998.2
20260905041503 54 316 0.0 3.0 0.00 0.09 0.05 1 998.2
20260905041003 54 327 0.0 3.0 0.00 0.09 0.05 1 998.2
20260905040503 54 341 0.0 2.0 0.00 0.09 0.05 1 998.2
20260905040003 54 84 0.0 1.0 0.00 0.09 0.05 1 998.2
20260905035503 54 296 0.0 1.0 0.00 0.09 0.05 1 998.2
20260905035003 54 321 0.0 3.0 0.00 0.09 0.05 1 998.2
20260905034503 54 320 0.0 4.0 0.00 0.09 0.05 1 998.1
20260905034024 54 316 0.0 4.0 0.00 0.09 0.05 1 998.2
20260905033503 54 309 0.0 2.0 0.00 0.09 0.05 1 998.1
20260905033003 54 331 0.0 1.0 0.00 0.09 0.05 1 998.0
20260905032503 54 331 0.0 1.0 0.00 0.09 0.05 1 997.9
20260905032003 54 331 0.0 1.0 0.00 0.09 0.05 1 997.9
20260905031503 54 299 0.0 1.0 0.00 0.09 0.05 1 997.9
20260905031003 54 297 0.0 1.0 0.00 0.09 0.05 1 997.9
20260905030503 54 281 0.0 1.0 0.00 0.09 0.05 1 997.8
20260905030003 54 303 0.0 2.0 0.00 0.09 0.05 1 997.8
20260905025524 54 303 0.0 2.0 0.00 0.09 0.05 1 997.8
20260905025003 54 300 0.0 1.0 0.00 0.09 0.05 1 997.8
20260905024503 54 286 0.0 1.0 0.00 0.09 0.05 1 997.7
20260905024002 54 286 0.0 1.0 0.00 0.09 0.05 1 997.6
20260905023503 54 0 0.0 0.0 0.00 0.09 0.05 1 997.6
20260905023003 54 315 0.0 1.0 0.02 0.09 0.05 1 997.6
20260905022524 54 312 0.0 1.0 0.02 0.09 0.05 1 997.5
20260905022003 54 328 0.0 1.0 0.02 0.09 0.05 1 997.4
20260905021503 54 320 0.0 3.0 0.02 0.09 0.05 1 997.4
20260905021003 54 310 0.0 3.0 0.02 0.09 0.05 1 997.3
20260905020503 54 0 0.0 0.0 0.02 0.09 0.05 1 997.3
20260905020003 54 0 0.0 0.0 0.03 0.09 0.05 1 997.3
20260905015524 54 0 0.0 0.0 0.03 0.09 0.05 1 997.2
20260905015003 54 0 0.0 0.0 0.03 0.09 0.05 1 997.2
20260905014503 54 0 0.0 0.0 0.03 0.09 0.05 1 997.2
20260905014003 54 146 0.0 1.0 0.03 0.09 0.05 1 997.0
20260905013503 54 146 0.0 1.0 0.03 0.09 0.05 1 997.0
20260905013002 54 0 0.0 0.0 0.02 0.07 0.03 1 997.1
20260905012503 53 0 0.0 0.0 0.02 0.07 0.03 1 997.0
20260905012003 53 311 0.0 2.0 0.02 0.07 0.03 1 996.9
20260905011503 53 323 0.0 2.0 0.02 0.07 0.03 1 996.9
20260905011003 53 359 0.0 1.0 0.02 0.07 0.03 1 996.8
20260905010503 53 288 0.0 1.0 0.02 0.06 0.02 1 996.8
20260905010003 53 288 0.0 1.0 0.01 0.06 0.02 1 996.9
20260905005503 53 0 0.0 0.0 0.01 0.06 0.02 1 996.9
20260905005003 53 242 0.0 1.0 0.01 0.06 0.02 1 997.0
20260905004524 53 242 0.0 1.0 0.01 0.06 0.02 1 997.0
20260905004003 54 290 0.0 1.0 0.01 0.06 0.02 1 997.1
20260905003503 54 272 0.0 1.0 0.02 0.06 0.02 1 996.9
20260905003002 54 207 0.0 1.0 0.01 0.05 0.01 1 997.0
20260905002503 54 323 0.0 1.0 0.01 0.05 0.01 1 997.0
20260905002003 54 321 0.0 1.0 0.01 0.05 0.01 1 996.9
20260905001524 54 315 0.0 1.0 0.01 0.05 0.01 1 996.9
20260905001003 54 316 0.0 1.0 0.01 0.05 0.01 1 996.9
20260905000524 54 0 0.0 0.0 0.01 0.05 0.01 1 996.9
20260905000003 54 0 0.0 0.0 0.01 0.05 0.01 1 996.8
20260904235503 54 0 0.0 0.0 0.01 0.05 0.01 1 996.7
20260904235024 54 0 0.0 0.0 0.01 0.05 0.01 1 996.7
20260904234503 54 0 0.0 0.0 0.01 0.05 0.01 1 996.6
20260904234003 54 0 0.0 0.0 0.01 0.05 0.01 1 996.6
20260904233502 54 0 0.0 0.0 0.00 0.04 0.00 1 996.5
20260904233003 54 0 0.0 0.0 0.00 0.04 0.00 1 996.5
20260904232503 54 0 0.0 0.0 0.00 0.04 0.00 1 996.5
20260904232003 54 0 0.0 0.0 0.00 0.04 0.00 1 996.5
20260904231503 54 0 0.0 0.0 0.00 0.04 0.00 1 996.5
20260904231003 54 0 0.0 0.0 0.00 0.04 0.00 1 996.5
20260904230524 54 0 0.0 0.0 0.00 0.04 0.00 1 996.5
20260904230003 54 0 0.0 0.0 0.00 0.04 0.00 1 996.5
20260904225503 54 0 0.0 0.0 0.00 0.04 0.00 1 996.5
20260904225024 54 0 0.0 0.0 0.00 0.04 0.00 1 996.5
20260904224524 54 0 0.0 0.0 0.00 0.05 0.00 1 996.4
20260904224003 54 243 0.0 1.0 0.00 0.05 0.00 1 996.4
20260904223502 54 243 0.0 1.0 0.01 0.05 0.00 1 996.4
20260904223003 54 81 0.0 1.0 0.01 0.05 0.00 1 996.4
20260904222503 54 81 0.0 1.0 0.01 0.05 0.00 1 996.4
20260904222003 54 312 0.0 2.0 0.01 0.06 0.00 1 996.4
20260904221503 54 308 0.0 3.0 0.01 0.07 0.00 1 996.4
20260904221003 55 309 0.0 3.0 0.01 0.09 0.00 1 996.4
20260904220524 55 320 0.0 1.0 0.02 0.11 0.00 1 996.4
20260904220026 55 307 0.0 2.0 0.02 0.12 0.00 1 996.4
20260904215503 55 319 0.0 2.0 0.02 0.13 0.12 1 996.3
20260904215003 55 318 0.0 2.0 0.02 0.14 0.12 1 996.3
20260904214524 55 313 0.0 2.0 0.02 0.17 0.12 1 996.3
20260904214003 55 311 0.0 2.0 0.02 0.21 0.12 1 996.2
20260904213502 55 0 0.0 0.0 0.01 0.22 0.11 1 996.2
20260904213003 55 0 0.0 0.0 0.02 0.24 0.11 1 996.2
20260904212503 55 316 0.0 1.0 0.02 0.24 0.11 1 996.2
20260904212003 55 316 0.0 1.0 0.02 0.24 0.11 1 996.2
20260904211503 55 0 0.0 0.0 0.02 0.24 0.11 1 996.2
20260904211003 55 0 0.0 0.0 0.02 0.24 0.11 1 996.1
20260904210503 55 0 0.0 0.0 0.02 0.24 0.10 1 996.0
20260904210003 55 0 0.0 0.0 0.02 0.24 0.10 1 996.0
20260904205503 55 0 0.0 0.0 0.02 0.24 0.10 1 996.0
20260904205024 55 0 0.0 0.0 0.02 0.24 0.10 1 996.0
20260904204503 55 0 0.0 0.0 0.02 0.24 0.10 1 996.1
20260904204003 55 0 0.0 0.0 0.02 0.24 0.10 1 996.0
20260904203503 55 277 0.0 1.0 0.02 0.24 0.10 1 996.1
20260904203002 55 300 0.0 2.0 0.02 0.23 0.09 1 996.1
20260904202503 55 314 0.0 2.0 0.02 0.23 0.09 1 996.2
20260904202024 55 0 0.0 0.0 0.02 0.23 0.09 1 996.1
20260904201502 55 0 0.0 0.0 0.01 0.22 0.09 1 996.1
20260904201003 55 0 0.0 0.0 0.01 0.22 0.09 1 996.1
20260904200503 56 0 0.0 0.0 0.01 0.22 0.09 1 996.1
20260904200003 56 0 0.0 0.0 0.00 0.21 0.08 1 996.1
20260904195524 56 0 0.0 0.0 0.00 0.21 0.08 1 996.2
20260904195024 56 0 0.0 0.0 0.00 0.21 0.08 1 996.2
20260904194503 56 0 0.0 0.0 0.00 0.21 0.08 1 996.1
20260904194003 56 0 0.0 0.0 0.00 0.21 0.08 1 996.1
20260904193503 56 0 0.0 0.0 0.00 0.21 0.08 1 996.1
20260904193003 56 145 0.0 1.0 0.00 0.21 0.08 1 996.0
20260904192502 56 145 0.0 1.0 0.00 0.21 0.08 1 996.0
20260904192003 56 0 0.0 0.0 0.00 0.21 0.08 1 996.0
20260904191502 56 0 0.0 0.0 0.00 0.22 0.08 1 996.0
20260904191002 56 0 0.0 0.0 0.00 0.22 0.08 1 996.2
20260904190503 56 145 0.0 1.0 0.00 0.22 0.08 1 996.2
20260904190003 56 145 0.0 1.0 0.00 0.22 0.08 1 996.2
20260904185503 56 0 0.0 0.0 0.00 0.22 0.08 1 996.2
20260904185003 56 0 0.0 0.0 0.00 0.22 0.08 1 996.2
20260904184503 56 0 0.0 0.0 0.00 0.22 0.08 1 996.2
20260904184003 56 0 0.0 0.0 0.00 0.22 0.08 1 996.3
20260904183524 56 0 0.0 0.0 0.00 0.22 0.08 1 996.2
20260904183003 57 0 0.0 0.0 0.00 0.22 0.08 1 996.3
20260904182503 57 0 0.0 0.0 0.00 0.22 0.08 2 996.3
20260904182002 57 0 0.0 0.0 0.00 0.22 0.08 2 996.3
20260904181502 57 0 0.0 0.0 0.00 0.22 0.08 1 996.3
20260904181003 57 183 0.0 1.0 0.00 0.22 0.08 1 996.3
20260904180503 57 183 0.0 1.0 0.00 0.22 0.08 1 996.4
20260904180003 57 0 0.0 0.0 0.00 0.22 0.08 1 996.3
20260904175503 57 0 0.0 0.0 0.00 0.22 0.08 5 996.4
20260904175024 57 322 0.0 1.0 0.00 0.22 0.08 8 996.4
20260904174503 58 322 0.0 1.0 0.00 0.22 0.08 10 996.4
20260904174003 58 270 0.0 1.0 0.00 0.22 0.08 12 996.3
20260904173503 58 270 0.0 1.0 0.00 0.22 0.08 11 996.3
20260904173002 58 0 0.0 0.0 0.00 0.22 0.08 12 996.3
20260904172502 58 316 0.0 1.0 0.00 0.22 0.08 13 996.3
20260904172003 59 316 0.0 1.0 0.00 0.22 0.08 14 996.2
20260904171503 59 0 0.0 0.0 0.00 0.22 0.08 16 996.3
20260904171003 59 316 0.0 3.0 0.00 0.22 0.08 20 996.3
20260904170503 59 316 0.0 3.0 0.00 0.22 0.08 22 996.3
20260904170003 59 0 0.0 0.0 0.00 0.22 0.08 21 996.3
20260904165503 60 295 0.0 1.0 0.00 0.22 0.08 22 996.2
20260904165024 60 299 0.0 1.0 0.00 0.22 0.08 27 996.2
20260904164503 60 314 0.0 1.0 0.00 0.22 0.08 29 996.2
20260904164024 60 310 0.0 1.0 0.00 0.22 0.08 30 996.2
20260904163503 60 0 0.0 0.0 0.00 0.22 0.08 33 996.1
20260904163002 60 155 0.0 1.0 0.00 0.22 0.08 37 996.2
20260904162502 61 321 0.0 4.0 0.00 0.22 0.08 42 996.2
20260904162024 61 321 1.0 4.0 0.00 0.22 0.08 47 996.3
20260904161503 61 309 0.0 3.0 0.00 0.22 0.08 51 996.3
20260904161002 62 300 0.0 3.0 0.00 0.23 0.08 50 996.3
20260904160503 62 307 1.0 4.0 0.00 0.23 0.08 52 996.3
20260904160003 62 309 1.0 4.0 0.00 0.23 0.08 49 996.3
20260904155503 62 315 1.0 4.0 0.00 0.23 0.08 50 996.3
20260904155003 62 315 1.0 4.0 0.00 0.23 0.08 52 996.4
20260904154503 62 309 0.0 3.0 0.00 0.23 0.08 54 996.4
20260904154003 62 303 0.0 2.0 0.00 0.23 0.08 51 996.4
20260904153524 62 300 0.0 4.0 0.00 0.23 0.08 49 996.4
20260904153004 62 305 0.0 4.0 0.00 0.23 0.08 53 996.4
20260904152503 62 320 0.0 3.0 0.00 0.23 0.08 51 996.4
20260904152024 62 313 1.0 3.0 0.00 0.23 0.08 56 996.5
20260904151502 62 302 1.0 3.0 0.00 0.23 0.08 57 996.5
20260904151003 63 318 0.0 3.0 0.00 0.23 0.08 51 996.6
20260904150503 62 310 0.0 3.0 0.00 0.23 0.08 42 996.6
20260904150024 62 301 1.0 5.0 0.00 0.23 0.08 39 996.6
20260904145524 63 301 1.0 5.0 0.00 0.23 0.08 41 996.6
20260904145024 63 299 0.0 3.0 0.00 0.23 0.08 48 996.6
20260904144503 63 300 0.0 3.0 0.00 0.23 0.08 43 996.5
20260904144003 62 145 0.0 1.0 0.00 0.23 0.08 36 996.5
20260904143503 62 285 0.0 1.0 0.00 0.23 0.08 33 996.5
20260904143003 62 285 0.0 1.0 0.00 0.23 0.08 41 996.5
20260904142503 62 348 0.0 1.0 0.00 0.23 0.08 42 996.6
20260904142023 62 326 0.0 7.0 0.00 0.23 0.08 43 996.7
20260904141524 62 318 1.0 7.0 0.00 0.23 0.08 49 996.7
20260904141003 63 312 0.0 6.0 0.00 0.23 0.08 48 996.8
20260904140524 63 312 0.0 5.0 0.00 0.23 0.08 50 996.9
20260904140003 63 269 0.0 3.0 0.00 0.23 0.08 52 996.8
20260904135503 63 301 0.0 5.0 0.00 0.23 0.08 53 996.9
20260904135003 63 312 1.0 5.0 0.00 0.23 0.08 52 997.0
20260904134503 63 311 1.0 6.0 0.00 0.23 0.08 48 997.1
20260904134024 64 306 0.0 6.0 0.00 0.23 0.08 55 997.0
20260904133524 64 283 0.0 2.0 0.00 0.23 0.08 49 997.0
20260904133003 64 290 0.0 2.0 0.00 0.23 0.08 48 997.1
20260904132503 64 282 0.0 2.0 0.00 0.23 0.08 50 997.0
20260904132002 64 293 0.0 2.0 0.00 0.23 0.08 49 997.1
20260904131502 64 301 0.0 1.0 0.00 0.23 0.08 53 997.2
20260904131024 64 331 0.0 1.0 0.00 0.23 0.08 52 997.2
20260904130503 64 310 0.0 1.0 0.00 0.23 0.08 50 997.3
20260904130003 64 299 0.0 3.0 0.00 0.23 0.08 47 997.3
20260904125503 63 304 0.0 3.0 0.00 0.23 0.08 50 997.3
20260904125003 63 60 0.0 2.0 0.00 0.23 0.08 51 997.3
20260904124503 63 257 0.0 1.0 0.00 0.23 0.08 40 997.4
20260904124003 62 306 0.0 4.0 0.00 0.23 0.08 41 997.4
20260904123503 62 309 0.0 4.0 0.00 0.23 0.08 46 997.4
20260904123003 63 302 0.0 3.0 0.00 0.23 0.08 48 997.5
20260904122503 64 279 0.0 1.0 0.00 0.23 0.08 48 997.5
20260904122002 64 314 0.0 1.0 0.00 0.23 0.08 48 997.6
20260904121503 64 311 0.0 2.0 0.00 0.23 0.08 43 997.5
20260904121003 63 292 0.0 2.0 0.00 0.23 0.08 42 997.6
20260904120524 63 272 0.0 2.0 0.00 0.23 0.08 46 997.6
20260904120003 63 299 0.0 4.0 0.00 0.23 0.08 50 997.6
20260904115503 64 305 0.0 4.0 0.00 0.23 0.08 53 997.7
20260904115003 64 308 0.0 3.0 0.00 0.23 0.08 47 997.9
20260904114503 63 326 0.0 1.0 0.00 0.23 0.08 42 997.9
20260904114003 63 327 0.0 1.0 0.00 0.23 0.08 41 998.0
20260904113503 62 301 0.0 1.0 0.00 0.23 0.08 39 998.0
20260904113003 62 233 0.0 1.0 0.00 0.23 0.08 39 997.9
20260904112503 62 237 0.0 1.0 0.00 0.23 0.08 39 997.9
20260904112024 62 237 0.0 1.0 0.00 0.23 0.08 38 998.0
20260904111503 62 313 0.0 4.0 0.00 0.23 0.08 37 998.1
20260904111024 62 303 0.0 4.0 0.00 0.23 0.08 39 998.0
20260904110503 62 258 0.0 2.0 0.00 0.23 0.08 38 998.0
20260904110024 62 352 0.0 2.0 0.00 0.23 0.08 38 997.9
20260904105503 62 298 0.0 2.0 0.00 0.23 0.08 43 997.9
20260904105024 62 298 1.0 5.0 0.00 0.23 0.08 45 998.0
20260904104524 62 293 1.0 5.0 0.00 0.23 0.08 46 998.1
20260904104003 62 280 1.0 4.0 0.00 0.23 0.08 46 998.1
20260904103503 62 323 0.0 3.0 0.00 0.23 0.08 42 998.1
20260904103003 62 320 0.0 1.0 0.00 0.23 0.08 43 998.2
20260904102503 62 318 0.0 6.0 0.00 0.23 0.08 40 998.2
20260904102002 62 317 0.0 6.0 0.00 0.23 0.08 44 998.3
20260904101524 62 274 0.0 1.0 0.00 0.23 0.08 37 998.3
20260904101003 62 282 0.0 1.0 0.00 0.23 0.08 37 998.4
20260904100502 62 294 0.0 2.0 0.00 0.23 0.08 37 998.4
20260904100003 62 324 0.0 2.0 0.00 0.23 0.08 33 998.5
20260904095503 62 281 0.0 3.0 0.00 0.23 0.08 33 998.6
20260904095024 62 261 0.0 3.0 0.00 0.23 0.08 36 998.5
20260904094503 62 131 0.0 3.0 0.00 0.23 0.08 36 998.6
20260904094024 62 123 0.0 2.0 0.00 0.23 0.08 36 998.5
20260904093524 62 303 0.0 3.0 0.00 0.23 0.08 33 998.7
20260904093024 62 299 0.0 3.0 0.00 0.23 0.08 34 998.8
20260904092503 62 251 0.0 5.0 0.00 0.23 0.08 38 998.7
20260904092003 62 176 0.0 5.0 0.00 0.23 0.08 39 998.8
20260904091503 62 269 0.0 3.0 0.00 0.23 0.08 37 998.9
20260904091024 62 285 0.0 4.0 0.00 0.23 0.08 38 998.9
20260904090503 62 312 0.0 4.0 0.00 0.23 0.08 37 999.0
20260904090024 62 306 0.0 3.0 0.00 0.23 0.08 38 999.0
20260904085503 62 295 0.0 4.0 0.00 0.23 0.08 34 999.0
20260904085003 62 303 0.0 4.0 0.00 0.23 0.08 28 999.0
20260904084503 61 194 0.0 3.0 0.00 0.23 0.08 26 999.0
20260904084003 61 204 0.0 3.0 0.00 0.23 0.08 27 999.0
20260904083503 61 283 0.0 3.0 0.00 0.23 0.08 29 999.0
20260904083003 61 296 0.0 3.0 0.00 0.23 0.08 30 999.0
20260904082503 61 259 0.0 1.0 0.00 0.23 0.08 34 999.0
20260904082002 61 292 0.0 9.0 0.00 0.23 0.08 40 999.0
20260904081503 61 302 1.0 9.0 0.00 0.23 0.08 44 999.1
20260904081002 61 304 0.0 5.0 0.00 0.23 0.08 44 999.1
20260904080503 61 309 0.0 5.0 0.00 0.23 0.08 45 999.0
20260904080002 61 319 0.0 5.0 0.00 0.23 0.08 47 999.1
20260904075503 61 11 0.0 5.0 0.00 0.23 0.08 41 999.1
20260904075024 61 323 0.0 8.0 0.00 0.23 0.08 44 999.0
20260904074503 61 300 0.0 8.0 0.00 0.23 0.08 48 999.2
20260904074003 61 294 0.0 5.0 0.00 0.23 0.08 46 999.2
20260904073503 61 313 1.0 6.0 0.00 0.23 0.08 50 999.4
20260904073003 61 316 1.0 6.0 0.00 0.23 0.08 49 999.4
20260904072524 61 290 0.0 6.0 0.00 0.23 0.08 43 999.3
20260904072002 61 304 0.0 8.0 0.00 0.23 0.08 43 999.3
20260904071503 61 311 1.0 8.0 0.00 0.23 0.08 42 999.5
20260904071024 61 304 0.0 7.0 0.00 0.23 0.08 42 999.4
20260904070503 61 306 0.0 7.0 0.00 0.23 0.08 36 999.3
20260904070003 60 309 0.0 3.0 0.00 0.23 0.08 25 999.4
20260904065503 59 304 1.0 3.0 0.00 0.23 0.08 24 999.4
20260904065003 59 309 0.0 3.0 0.00 0.23 0.08 25 999.4
20260904064503 59 300 1.0 5.0 0.00 0.23 0.08 26 999.4
20260904064003 59 315 1.0 6.0 0.00 0.23 0.08 31 999.4
20260904063503 59 330 1.0 6.0 0.00 0.23 0.08 26 999.4
20260904063024 59 325 0.0 4.0 0.00 0.23 0.08 23 999.6